Location: Green River State Wildlife Area
(41.6390°N, 89.5080°W)
Time: 12:22:04
(UTC-05:00)

Daily predictions for brighter satellites

Satellite Brightness Start Highest point End
(mag) Time Altitude Azimuth Time Altitude Azimuth Time Altitude Azimuth
USA 238 DEB 3.9 19:07:57 10° SSW 19:15:01 90° SE 19:22:06 10° NE
USA 238 3.9 19:08:02 10° SSW 19:15:07 89° ESE 19:22:12 10° NE
Cosmos 1484 Rocket 3.0 19:15:03 10° S 19:18:52 75° W 19:22:46 10° NNW
SL-19 R/B 4.4 19:13:41 10° SSE 19:19:17 84° ENE 19:25:12 10° NNW
Atlas Centaur 2 4.1 19:13:03 10° WSW 19:20:39 36° S 19:27:46 10° SE
ATLAS CENTAUR R/B 1.3 19:18:41 10° NNW 19:22:58 75° ENE 19:26:52 10° SE
BREEZE-M DEB (TANK) 4.1 19:20:25 10° WNW 19:23:38 60° SSW 19:33:27 10° SE
ALOS 3.3 19:27:44 10° ESE 19:31:36 26° ENE 19:35:28 10° NNE
Cosmos 1437 2.7 19:31:08 10° N 19:34:25 88° W 19:37:41 10° S
Cosmos 1766 3.3 19:34:20 10° S 19:38:13 61° E 19:42:09 10° NNE
FREGAT/IRIS 2.6 19:36:04 10° SSE 19:39:09 81° ENE 19:42:15 10° N
Spot 2 Rocket 3.5 19:34:29 10° SSE 19:39:25 59° ENE 19:44:23 10° N
Cosmos 2237 Rocket 3.0 19:34:00 10° SW 19:39:35 57° WNW 19:45:12 10° NNE
Cosmos 2056 Rocket 3.6 19:35:45 10° NNW 19:41:13 88° ENE 19:46:39 10° SSE
NOAA 12 4.1 19:36:50 10° SSE 19:42:05 89° WSW 19:47:24 10° NNW
OAO 3 Rocket 4.2 19:38:33 10° SW 19:42:47 32° SSE 19:46:05 15° ESE
COSMO-SKYMED 1 4.2 19:40:44 10° N 19:44:48 39° WNW 19:48:50 10° SW
NOSS 3-2 (C) 3.6 19:41:17 10° SSW 19:47:07 53° ESE 19:53:28 10° NE
Helios 1A 3.0 19:43:22 10° SSE 19:47:29 59° ENE 19:51:37 10° N
CZ-4C R/B 3.1 19:43:10 10° SW 19:48:23 50° NW 19:54:16 10° NNE
CENTAUR R/B 4.1 19:48:14 10° SE 19:48:51 11° SE 19:48:51 11° SE
ATLAS 5 CENTAUR R/B 2.2 19:46:56 10° S 19:51:21 40° ESE 19:56:07 10° NE
ASTEX 1 4.2 19:47:44 10° NNE 19:52:02 29° E 19:56:16 10° SSE
CZ-2D R/B 4.1 19:52:08 18° ESE 19:54:22 31° ENE 19:57:50 10° N
Cosmos 1953 2.6 19:50:56 10° SSE 19:54:41 41° E 19:58:27 10° NNE
SL-16 R/B 2.2 19:52:25 10° SSW 19:58:07 89° WNW 20:03:51 10° NNE
Aureole 2 Rocket 3.1 19:55:49 10° SSW 20:00:12 77° WNW 20:04:33 10° NNE
Cosmos 2034 Rocket 4.0 19:56:50 10° S 20:02:59 65° E 20:09:15 10° NNE
Cosmos 1464 Rocket 4.0 19:59:55 10° S 20:06:11 89° W 20:12:26 10° N
Cosmos 1766 Rocket 3.4 20:02:19 10° N 20:06:43 76° E 20:11:03 10° SSE
Cosmos 1805 3.1 20:07:48 10° S 20:11:42 67° E 20:15:37 10° NNE
HJ-1C 4.2 20:08:53 10° S 20:12:10 52° W 20:15:28 10° NNW
Cosmos 724 4.4 20:08:10 10° S 20:13:50 50° ESE 20:19:40 10° NE
H-2A R/B 2.9 20:12:11 27° SE 20:14:03 51° ENE 20:17:50 10° N
Meteor 1-29 3.2 20:13:20 10° N 20:16:51 72° WNW 20:20:20 10° SSW
USA 215 3.5 20:17:06 10° NE 20:23:37 71° NW 20:30:06 10° WSW
Cosmos 1544 3.0 20:23:36 10° S 20:27:19 69° E 20:31:03 10° NNE
Cosmos 1346 3.8 20:24:53 10° N 20:27:01 40° NNE 20:27:01 40° NNE
Cosmos 1076 Rocket 4.5 20:24:39 10° NNW 20:28:50 48° W 20:33:00 10° SSW
FENGYUN 3A 3.6 20:26:10 10° SSE 20:31:32 86° WSW 20:36:58 10° NNW
Cosmos 1470 4.5 20:34:27 20° NNE 20:34:27 20° NNE 20:35:53 10° NNE
Cosmos-2242 3.1 20:28:23 10° SSW 20:32:43 78° W 20:37:08 10° N
ERS-1 Rocket 3.6 20:34:40 34° ENE 20:34:40 34° ENE 20:39:10 10° N
Cosmos 1758 3.9 20:31:26 10° SSW 20:35:27 60° W 20:39:32 10° N
Helios 1B rocket 3.9 20:32:03 10° N 20:35:53 39° WNW 20:39:42 10° SW
Cosmos 1452 Rocket 3.7 20:32:46 10° NNW 20:38:00 69° WSW 20:41:51 18° S
Cosmos 1842 Rocket 3.6 20:39:26 55° ENE 20:39:26 55° ENE 20:43:22 10° NNE
Cosmos 1500 Rocket 3.5 20:37:06 10° N 20:41:29 63° E 20:41:43 62° E
SeaSat 1 2.3 20:37:12 10° NNE 20:42:09 71° ESE 20:47:04 10° SSW
Cosmos 2369 Rocket 2.8 20:38:01 10° N 20:43:15 37° ENE 20:43:36 37° ENE
Cosmos 1603 3.6 20:39:26 10° SSW 20:45:10 84° ESE 20:50:57 10° NNE
Resurs 01 Rocket 3.6 20:42:19 10° SSW 20:46:09 28° W 20:50:02 10° NW
CZ-4B DEB 4.4 20:48:46 26° SW 20:49:55 34° W 20:52:57 10° NNW
Cosmos 2151 4.4 20:49:16 10° N 20:51:23 26° NNE 20:51:23 26° NNE
Cosmos 1943 Rocket 3.7 20:50:14 10° N 20:53:53 21° NE 20:53:53 21° NE
Cosmos 1420 Rocket 4.1 20:56:46 10° NNW 21:02:04 76° WSW 21:03:18 53° S
Cosmos 1674 3.6 21:04:13 10° NNW 21:07:21 48° NW 21:07:21 48° NW
ALOS 3.9 21:04:44 10° SSW 21:08:54 32° W 21:13:06 10° NNW
Atlas Centaur 2 4.3 21:03:21 10° WSW 21:09:24 23° SSW 21:11:38 20° S
Cosmos 1655 Rocket 4.0 21:06:55 10° N 21:12:38 58° ENE 21:12:38 58° ENE
Cosmos 1269 Rocket 4.4 21:09:30 10° SSW 21:14:44 63° WNW 21:19:59 10° NNE
GP-B 3.7 21:12:55 10° N 21:16:39 55° NW 21:16:39 55° NW
Cosmos 1048 Rocket 4.3 21:16:12 10° SSW 21:21:28 64° WNW 21:26:43 10° NNE
Cosmos 1092 Rocket 4.4 21:16:42 10° NNW 21:22:49 60° W 21:25:37 32° SSW
Envisat 3.5 21:30:15 54° NNW 21:30:15 54° NNW 21:34:10 10° NNW
ATLAS 5 CENTAUR R/B 3.6 21:31:51 10° WSW 21:36:09 30° NW 21:40:47 10° NNE
Cosmos 1634 Rocket 4.3 21:33:47 29° SSW 21:37:02 62° W 21:43:13 10° N
Cosmos 2026 Rocket 4.0 21:33:31 10° N 21:39:13 75° NW 21:39:13 75° NW
CENTAUR R/B 4.1 21:34:32 10° SSW 21:47:41 - NE 21:36:16 21° SSW
H-2A R/B 4.4 21:51:48 19° NNW 21:51:48 19° NNW 21:53:05 10° NNW
Cosmos 2369 Rocket 4.0 22:22:12 10° NW 22:25:24 27° WNW 22:25:24 27° WNW
Cosmos 1943 Rocket 4.2 22:33:13 10° NNW 22:35:24 24° NW 22:35:24 24° NW
